Date String (YYYY-MM-DD hh:mm:ss) UTC,Instrument flags,absolute air pressure of the measurement (hPa),sample flow rate (lpm),inlet stack bypass flow (lpm),air temperature of the measurement (°C),ambient temperature measured by the external sensor (°C),aerosol sample conditioner tube jacket temperature (°C),OPC LED temperature (°C),internal box temperature (°C),relative humidity of the measurement (%),span deviation,mass concentration of particles derived from Lorenz-Mie calculation of OPC scattering (μg/m³),mass concentration of particles derived from Lorenz-Mie calculation of OPC scattering (μg/m³),mass concentration of particles derived from Lorenz-Mie calculation of OPC scattering (μg/m³)
DateTimeUTC,F1_M11,P_M11,Q1_M11,Q2_M11,T1_M11,T2_M11,T3_M11,T4_M11,T5_M11,U1_M11,ZSPAN_M11,X0_M11,X2_M11,X1_M11
2023-06-02 21:00:00,SystemResetWarning,0826.7,5.01,000.00,029.9,028.6,000.0,038.1,031.6,26.0,0000.0,0003.64,0001.95,0001.24
2023-06-02 21:01:00,SystemResetWarning,0826.6,5.00,000.00,029.9,028.6,000.0,038.1,031.6,25.6,0000.0,0003.75,0001.96,0001.26
2023-06-02 21:02:00,SystemResetWarning,0826.6,5.00,000.00,029.9,028.6,000.0,038.2,031.6,25.6,0000.0,0003.87,0002.01,0001.29
2023-06-02 21:03:00,SystemResetWarning,0826.6,4.98,000.00,029.9,027.7,000.0,038.1,031.5,26.2,0000.0,0003.99,0002.06,0001.29
2023-06-02 21:04:00,SystemResetWarning,0826.6,5.00,000.00,029.9,026.2,000.0,038.1,031.3,26.1,0000.0,0003.90,0002.03,0001.28
2023-06-02 21:05:00,SystemResetWarning,0826.6,5.02,000.00,029.8,026.0,000.0,038.0,031.2,25.1,0000.0,0003.85,0001.98,0001.27
2023-06-02 21:06:00,SystemResetWarning,0826.6,5.00,000.00,029.7,026.2,000.0,038.0,031.1,24.1,0000.0,0003.88,0001.91,0001.25
2023-06-02 21:07:00,SystemResetWarning,0826.6,5.00,000.00,029.7,026.5,000.0,038.0,031.1,23.1,0000.0,0003.97,0001.90,0001.24
2023-06-02 21:08:00,SystemResetWarning,0826.6,5.00,000.00,029.6,026.8,000.0,038.0,031.2,23.2,0000.0,0004.01,0001.89,0001.22
2023-06-02 21:09:00,SystemResetWarning,0826.6,5.00,000.00,029.6,027.1,000.0,038.0,031.2,22.6,0000.0,0003.86,0001.82,0001.19
2023-06-02 21:10:00,SystemResetWarning,0826.6,5.00,000.00,029.7,027.4,000.0,038.0,031.3,23.1,0000.0,0003.66,0001.76,0001.17
2023-06-02 21:11:00,SystemResetWarning,0826.6,5.00,000.00,029.7,027.6,000.0,038.0,031.3,23.5,0000.0,0003.30,0001.71,0001.15
2023-06-02 21:12:00,SystemResetWarning,0826.6,4.99,000.00,029.7,027.8,000.0,038.0,031.3,23.0,0000.0,0003.13,0001.67,0001.11
2023-06-02 21:13:00,SystemResetWarning,0826.6,4.99,000.00,029.7,028.0,000.0,038.0,031.4,23.1,0000.0,0003.01,0001.60,0001.08
2023-06-02 21:14:00,SystemResetWarning,0826.6,5.00,000.00,029.7,028.1,000.0,038.0,031.4,23.6,0000.0,0003.35,0001.53,0001.05
2023-06-02 21:15:00,SystemResetWarning,0826.6,4.99,000.00,029.7,028.3,000.0,038.1,031.4,23.7,0000.0,0004.14,0001.54,0001.03
2023-06-02 21:16:00,SystemResetWarning,0826.6,5.01,000.00,029.8,028.4,000.0,038.1,031.5,24.8,0000.0,0004.10,0001.55,0001.02
2023-06-02 21:17:00,SystemResetWarning,0826.6,5.01,000.00,029.8,028.5,000.0,038.1,031.5,24.6,0000.0,0004.13,0001.58,0001.04
2023-06-02 21:18:00,SystemResetWarning,0826.6,4.99,000.00,029.8,028.5,000.0,038.1,031.5,25.3,0000.0,0004.18,0001.58,0001.05
2023-06-02 21:19:00,SystemResetWarning,0826.6,4.99,000.00,029.9,028.6,000.0,038.1,031.6,26.1,0000.0,0004.13,0001.58,0001.06
2023-06-02 21:20:00,SystemResetWarning,0826.6,5.01,000.00,029.9,028.6,000.0,038.1,031.6,25.7,0000.0,0004.17,0001.62,0001.07
2023-06-02 21:21:00,SystemResetWarning,0826.7,5.00,000.00,029.9,028.7,000.0,038.2,031.6,25.7,0000.0,0004.15,0001.61,0001.08
2023-06-02 21:22:00,SystemResetWarning,0826.8,5.02,000.00,029.9,028.7,000.0,038.2,031.6,26.1,0000.0,0004.13,0001.60,0001.10
2023-06-02 21:23:00,SystemResetWarning,0826.8,5.00,000.00,030.0,028.1,000.0,038.2,031.6,25.7,0000.0,0004.27,0001.66,0001.13
2023-06-02 21:24:00,SystemResetWarning,0826.8,4.99,000.00,029.9,026.5,000.0,038.1,031.3,25.7,0000.0,0004.40,0001.72,0001.16
2023-06-02 21:25:00,SystemResetWarning,0826.9,5.01,000.00,029.8,026.0,000.0,038.0,031.2,25.3,0000.0,0003.96,0001.74,0001.17
2023-06-02 21:26:00,SystemResetWarning,0826.9,5.01,000.00,029.8,026.1,000.0,038.0,031.1,25.6,0000.0,0003.23,0001.71,0001.17
2023-06-02 21:27:00,SystemResetWarning,0827.0,4.99,000.00,029.7,026.4,000.0,038.0,031.1,25.4,0000.0,0003.36,0001.71,0001.19
2023-06-02 21:28:00,SystemResetWarning,0827.0,5.00,000.00,029.7,026.7,000.0,038.0,031.2,25.8,0000.0,0003.32,0001.72,0001.19
2023-06-02 21:29:00,SystemResetWarning,0827.0,5.01,000.00,029.7,027.0,000.0,038.0,031.2,25.1,0000.0,0003.14,0001.73,0001.19
2023-06-02 21:30:00,SystemResetWarning,0827.1,4.99,000.00,029.7,027.3,000.0,038.0,031.2,24.9,0000.0,0003.27,0001.75,0001.20
2023-06-02 21:31:00,SystemResetWarning,0827.1,4.99,000.00,029.7,027.5,000.0,038.0,031.3,25.4,0000.0,0003.40,0001.78,0001.21
2023-06-02 21:32:00,SystemResetWarning,0827.1,5.00,000.00,029.7,027.7,000.0,038.0,031.3,25.3,0000.0,0004.03,0001.79,0001.22
2023-06-02 21:33:00,SystemResetWarning,0827.1,5.00,000.00,029.7,027.8,000.0,038.0,031.3,25.2,0000.0,0004.46,0001.82,0001.22
2023-06-02 21:34:00,SystemResetWarning,0827.1,5.00,000.00,029.7,027.9,000.0,038.0,031.3,24.8,0000.0,0004.58,0001.78,0001.20
2023-06-02 21:35:00,SystemResetWarning,0827.2,5.00,000.00,029.7,028.1,000.0,038.0,031.4,25.4,0000.0,0004.55,0001.75,0001.20
2023-06-02 21:36:00,SystemResetWarning,0827.1,5.00,000.00,029.7,028.2,000.0,038.0,031.4,26.1,0000.0,0004.51,0001.76,0001.21
2023-06-02 21:37:00,SystemResetWarning,0827.2,5.01,000.00,029.7,028.2,000.0,038.1,031.4,26.0,0000.0,0004.87,0001.80,0001.24
2023-06-02 21:38:00,SystemResetWarning,0827.2,5.01,000.00,029.7,028.3,000.0,038.1,031.4,26.2,0000.0,0005.04,0001.80,0001.24
2023-06-02 21:39:00,SystemResetWarning,0827.1,5.00,000.00,029.7,028.3,000.0,038.1,031.4,25.9,0000.0,0004.96,0001.80,0001.24
2023-06-02 21:40:00,SystemResetWarning,0827.2,5.00,000.00,029.8,028.3,000.0,038.1,031.4,25.8,0000.0,0004.90,0001.76,0001.24
2023-06-02 21:41:00,SystemResetWarning,0827.2,5.00,000.00,029.8,028.4,000.0,038.1,031.5,25.4,0000.0,0004.81,0001.75,0001.23
2023-06-02 21:42:00,SystemResetWarning,0827.2,5.00,000.00,029.8,028.4,000.0,038.1,031.5,25.8,0000.0,0004.77,0001.75,0001.24
2023-06-02 21:43:00,SystemResetWarning,0827.2,5.00,000.00,029.8,028.4,000.0,038.1,031.5,25.7,0000.0,0004.50,0001.74,0001.24
2023-06-02 21:44:00,SystemResetWarning,0827.2,4.98,000.00,029.8,027.6,000.0,038.1,031.3,25.6,0000.0,0004.06,0001.72,0001.24
2023-06-02 21:45:00,SystemResetWarning,0827.2,5.01,000.00,029.7,026.1,000.0,038.0,031.1,25.8,0000.0,0003.90,0001.71,0001.24
2023-06-02 21:46:00,SystemResetWarning,0827.2,5.01,000.00,029.7,025.7,000.0,038.0,031.0,26.3,0000.0,0003.82,0001.75,0001.26
2023-06-02 21:47:00,SystemResetWarning,0827.1,5.01,000.00,029.6,025.9,000.0,037.9,031.0,25.9,0000.0,0003.77,0001.73,0001.25
2023-06-02 21:48:00,SystemResetWarning,0827.1,5.00,000.00,029.5,026.3,000.0,037.9,031.0,25.8,0000.0,0003.53,0001.71,0001.24
2023-06-02 21:49:00,SystemResetWarning,0827.1,4.99,000.00,029.5,026.6,000.0,037.9,031.0,26.5,0000.0,0003.17,0001.69,0001.23
2023-06-02 21:50:00,SystemResetWarning,0827.1,4.99,000.00,029.5,026.9,000.0,037.9,031.1,26.9,0000.0,0003.16,0001.69,0001.21
2023-06-02 21:51:00,SystemResetWarning,0827.2,5.00,000.00,029.5,027.2,000.0,037.9,031.2,25.9,0000.0,0003.35,0001.74,0001.22
2023-06-02 21:52:00,SystemResetWarning,0827.1,5.00,000.00,029.5,027.5,000.0,037.9,031.2,26.1,0000.0,0003.89,0001.80,0001.22
2023-06-02 21:53:00,SystemResetWarning,0827.1,5.01,000.00,029.6,027.7,000.0,037.9,031.2,25.0,0000.0,0003.84,0001.78,0001.21
2023-06-02 21:54:00,SystemResetWarning,0827.2,5.00,000.00,029.6,027.8,000.0,037.9,031.2,25.2,0000.0,0003.74,0001.78,0001.21
2023-06-02 21:55:00,SystemResetWarning,0827.1,4.99,000.00,029.6,027.9,000.0,037.9,031.3,25.0,0000.0,0004.13,0001.78,0001.20
2023-06-02 21:56:00,SystemResetWarning,0827.1,4.99,000.00,029.6,028.0,000.0,037.9,031.3,24.9,0000.0,0004.59,0001.77,0001.19
2023-06-02 21:57:00,SystemResetWarning,0827.1,5.00,000.00,029.6,028.1,000.0,038.0,031.3,25.3,0000.0,0005.19,0001.74,0001.17
2023-06-02 21:58:00,SystemResetWarning,0827.2,5.00,000.00,029.6,028.2,000.0,038.0,031.3,25.2,0000.0,0005.25,0001.75,0001.16
2023-06-02 21:59:00,SystemResetWarning,0827.1,5.01,000.00,029.7,028.3,000.0,038.0,031.4,24.8,0000.0,0005.19,0001.73,0001.16
